2023/02/01 00:00:00,24.7, 1.0
2023/02/01 00:10:00,24.7, 0.7
2023/02/01 00:20:00,24.7, 1.2
2023/02/01 00:30:00,24.7, 1.1
2023/02/01 00:40:00,24.7, 1.3
2023/02/01 00:50:00,24.6, 1.0
2023/02/01 01:00:00,24.6, 1.5
2023/02/01 01:10:00,24.6, 1.5
2023/02/01 01:20:00,24.6, 1.4
2023/02/01 01:30:00,24.5, 1.5
2023/02/01 01:40:00,24.5, 1.6
2023/02/01 01:50:00,24.4, 1.3
2023/02/01 02:00:00,24.4, 1.3
2023/02/01 02:10:00,24.4, 1.3
2023/02/01 02:20:00,24.3, 0.7
2023/02/01 02:30:00,24.3, 0.5
2023/02/01 02:40:00,24.3, 1.0
2023/02/01 02:50:00,24.3, 0.9
2023/02/01 03:00:00,24.3, 0.4
2023/02/01 03:10:00,24.2, 0.4
2023/02/01 03:20:00,24.2, 0.6
2023/02/01 03:30:00,24.2, 0.8
2023/02/01 03:40:00,24.2, 0.8
2023/02/01 03:50:00,24.2, 1.0
2023/02/01 04:00:00,24.2, 1.3
2023/02/01 04:10:00,24.2, 2.2
2023/02/01 04:20:00,24.3, 2.8
2023/02/01 04:30:00,24.2, 2.9
2023/02/01 04:40:00,24.2, 2.9
2023/02/01 04:50:00,24.1, 2.4
2023/02/01 05:00:00,24.1, 2.4
2023/02/01 05:10:00,24.1, 2.3
2023/02/01 05:20:00,24.0, 1.9
2023/02/01 05:30:00,24.0, 2.6
2023/02/01 05:40:00,23.9, 2.9
2023/02/01 05:50:00,24.0, 2.9
2023/02/01 06:00:00,23.9, 2.8
2023/02/01 06:10:00,24.0, 2.3
2023/02/01 06:20:00,23.9, 2.4
2023/02/01 06:30:00,23.8, 2.8
2023/02/01 06:40:00,23.9, 3.4
2023/02/01 06:50:00,24.1, 3.8
2023/02/01 07:00:00,24.0, 3.4
2023/02/01 07:10:00,23.8, 4.0
2023/02/01 07:20:00,23.6, 4.0
2023/02/01 07:30:00,23.5, 4.3
2023/02/01 07:40:00,23.6, 4.4
2023/02/01 07:50:00,23.5, 4.1
2023/02/01 08:00:00,23.5, 4.2
2023/02/01 08:10:00,23.4, 4.6
2023/02/01 08:20:00,23.4, 5.0
2023/02/01 08:30:00,23.3, 5.3
2023/02/01 08:40:00,23.3, 5.7
2023/02/01 08:50:00,23.4, 6.1
2023/02/01 09:00:00,23.5, 6.5
2023/02/01 09:10:00,23.4, 6.3
2023/02/01 09:20:00,23.4, 6.8
2023/02/01 09:30:00,23.4, 6.8
2023/02/01 09:40:00,23.4, 7.1
2023/02/01 09:50:00,23.4, 6.6
2023/02/01 10:00:00,23.4, 7.2
2023/02/01 10:10:00,23.4, 7.1
2023/02/01 10:20:00,23.2, 7.3
2023/02/01 10:30:00,23.2, 7.3
2023/02/01 10:40:00,23.1, 7.6
2023/02/01 10:50:00,22.8, 7.0
2023/02/01 11:00:00,22.7, 6.9
2023/02/01 11:10:00,22.9, 7.4
2023/02/01 11:20:00,22.6, 7.2
2023/02/01 11:30:00,22.4, 7.3
2023/02/01 11:40:00,22.5, 9.5
2023/02/01 11:50:00,22.6,10.8
2023/02/01 12:00:00,22.7,10.4
2023/02/01 12:10:00,22.1, 8.7
2023/02/01 12:20:00,21.5, 7.3
2023/02/01 12:30:00,21.2, 7.0
2023/02/01 12:40:00,21.3, 6.9
2023/02/01 12:50:00,21.1, 6.8
2023/02/01 13:00:00,21.2, 7.4
2023/02/01 13:10:00,21.2, 8.5
2023/02/01 13:20:00,20.9, 8.7
2023/02/01 13:30:00,21.0,11.4
2023/02/01 13:40:00,20.6,11.8
2023/02/01 13:50:00,20.7,12.0
2023/02/01 14:00:00,19.8, 9.9
2023/02/01 14:10:00,19.2, 8.9
2023/02/01 14:20:00,19.0, 8.5
2023/02/01 14:30:00,19.0, 8.8
2023/02/01 14:40:00,19.0, 8.9
2023/02/01 14:50:00,19.0, 9.2
2023/02/01 15:00:00,18.8, 8.7
2023/02/01 15:10:00,18.7, 8.1
2023/02/01 15:20:00,18.6, 8.0
2023/02/01 15:30:00,18.7, 7.1
2023/02/01 15:40:00,18.5, 6.0
2023/02/01 15:50:00,18.4, 5.9
2023/02/01 16:00:00,18.3, 4.3
2023/02/01 16:10:00,17.6, 4.9
2023/02/01 16:20:00,17.6, 4.6
2023/02/01 16:30:00,17.7, 4.8
2023/02/01 16:40:00,16.9, 4.0
2023/02/01 16:50:00,16.8, 3.6
2023/02/01 17:00:00,17.2, 3.8
2023/02/01 17:10:00,16.8, 3.6
2023/02/01 17:20:00,16.8, 3.7
2023/02/01 17:30:00,16.6, 3.9
2023/02/01 17:40:00,16.7, 4.0
2023/02/01 17:50:00,16.6, 3.4
2023/02/01 18:00:00,16.7, 3.2
2023/02/01 18:10:00,16.8, 2.8
2023/02/01 18:20:00,16.9, 3.1
2023/02/01 18:30:00,16.5, 2.8
2023/02/01 18:40:00,16.5, 2.5
2023/02/01 18:50:00,16.5, 2.8
2023/02/01 19:00:00,16.5, 2.5
2023/02/01 19:10:00,16.5, 2.3
2023/02/01 19:20:00,16.5, 1.9
2023/02/01 19:30:00,16.5, 2.2
2023/02/01 19:40:00,16.6, 2.2
2023/02/01 19:50:00,16.6, 2.3
2023/02/01 20:00:00,16.5, 2.0
2023/02/01 20:10:00,16.4, 1.8
2023/02/01 20:20:00,16.4, 1.9
2023/02/01 20:30:00,16.4, 1.8
2023/02/01 20:40:00,16.2, 1.8
2023/02/01 20:50:00,16.2, 1.7
2023/02/01 21:00:00,16.0, 1.5
2023/02/01 21:10:00,15.5, 2.1
2023/02/01 21:20:00,15.0, 1.9
2023/02/01 21:30:00,15.1, 1.9
2023/02/01 21:40:00,15.3, 2.0
2023/02/01 21:50:00,15.8, 2.0
2023/02/01 22:00:00,15.9, 1.8
2023/02/01 22:10:00,15.9, 1.8
2023/02/01 22:20:00,15.7, 1.7
2023/02/01 22:30:00,15.0, 1.5
2023/02/01 22:40:00,14.9, 1.6
2023/02/01 22:50:00,15.0, 1.7
2023/02/01 23:00:00,15.1, 1.6
2023/02/01 23:10:00,15.1, 1.4
2023/02/01 23:20:00,15.0, 1.4
2023/02/01 23:30:00,15.1, 1.6
2023/02/01 23:40:00,15.4, 1.4
2023/02/01 23:50:00,15.4, 1.1
